Regional Weather Roundup
Issued by NWS

Home | Current Version | Previous Version | Graphics & Text | Print | Product List | Glossary On
Versions: 1 2 3 4 5 6 7 8 9 10 11 12 13 14 15 16 17 18 19 20 21 22 23 24 25 26 27 28 29 30 31 32 33 34 35 36 37 38 39 40 41 42 43 44 45 46 47 48 49 50
000
ASUS43 KIND 270559
RWRIN

WEATHER ROUNDUP FOR INDIANA
NATIONAL WEATHER SERVICE INDIANAPOLIS IN
100 AM EST SAT DEC 27 2014

NOTE: "FAIR" INDICATES FEW OR NO CLOUDS BELOW 12,000 FEET WITH NO
SIGNIFICANT WEATHER AND/OR OBSTRUCTIONS TO VISIBILITY.

* - STATION DOES NOT REPORT WEATHER SUCH AS PRECIPITATION OR FOG.

+ - STATION NOT QUALITY CONTROLLED BY THE NATIONAL WEATHER SERVICE.
    USE DATA WITH CAUTION...ESPECIALLY DEWPOINT AND RELATIVE
    HUMIDITY OBSERVATIONS.

INZ001>003-010>013-019-020-270700-
NORTHWEST INDIANA

CITY           SKY/WX    TMP DP  RH WIND       PRES   REMARKS
KNOX *+        CLOUDY    45  38  77 S7        30.07F
VALPARAISO     NOT AVBL

$$

LMZ046-743>745-270700-
SOUTHERN LAKE MICHIGAN

STATION/POSITION TIME  TEMP WIND        PRES
                       AIR  DIR/SP/G
                 (UTC) (F)  (DEG/KT/KT) (MB)
MICHIGAN CITY    0500   47  160/ 12/ 16   N/A

$$

INZ004-005-014>016-021>024-270700-
NORTH CENTRAL INDIANA

CITY           SKY/WX    TMP DP  RH WIND       PRES   REMARKS
GOSHEN         CLOUDY    46  41  82 S7        30.08F
6HR MIN TEMP:  43; 6HR MAX TEMP:  47;

SOUTH BEND     CLOUDY    47  41  80 S7        30.08F
6HR MIN TEMP:  46; 6HR MAX TEMP:  49;


$$

INZ006>009-017-018-025>027-270700-
NORTHEAST INDIANA

CITY           SKY/WX    TMP DP  RH WIND       PRES   REMARKS
ANGOLA *+      MOCLDY    43  39  87 SW7       30.09F
FORT WAYNE     CLOUDY    44  39  82 S7        30.12F
6HR MIN TEMP:  40; 6HR MAX TEMP:  44;


$$

INZ028-029-035-036-043>045-051>053-270700-
WEST CENTRAL INDIANA

CITY           SKY/WX    TMP DP  RH WIND       PRES   REMARKS
GREENCASTLE +  CLOUDY    46  34  61 S7        30.12R
LAFAYETTE      CLOUDY    47  41  80 S9        30.08F
6HR MIN TEMP:  44; 6HR MAX TEMP:  47;

TERRE HAUTE    PTCLDY    46  39  76 S9        30.10F
6HR MIN TEMP:  46; 6HR MAX TEMP:  50;


$$

INZ030>032-037>040-046>048-054>057-064-065-270700-
CENTRAL INDIANA

CITY           SKY/WX    TMP DP  RH WIND       PRES   REMARKS
INDIANAPOLIS   CLOUDY    46  37  71 S12       30.10F
6HR MIN TEMP:  44; 6HR MAX TEMP:  46;

-EAGLE CREEK   CLOUDY    47  38  71 S8        30.11F
6HR MIN TEMP:  46; 6HR MAX TEMP:  47;

KOKOMO *+      CLOUDY    45  39  81 S10       30.10F
MT COMFORT *+  CLOUDY    45  34  65 S10       30.12F
SHELBYVILLE    CLOUDY    46  37  71 S10       30.14F
6HR MIN TEMP:  42; 6HR MAX TEMP:  47;


$$

INZ033-034-041-042-049-050-058-059-270700-
EAST CENTRAL INDIANA

CITY           SKY/WX    TMP DP  RH WIND       PRES   REMARKS
MUNCIE         CLOUDY    48  37  65 SW10      30.13S
6HR MIN TEMP:  45; 6HR MAX TEMP:  48;


$$

INZ060-061-067>069-081>083-085>088-270700-
SOUTHWEST INDIANA

CITY           SKY/WX    TMP DP  RH WIND       PRES   REMARKS
EVANSVILLE     CLOUDY    50  37  61 S9        30.16F
6HR MIN TEMP:  49; 6HR MAX TEMP:  53;

HUNTINGBURG *+ CLOUDY    46  36  66 S8        30.17F
6HR MIN TEMP:  45; 6HR MAX TEMP:  48;


$$

INZ062-063-066-070>080-084-089>092-270700-
SOUTH CENTRAL AND SOUTHEAST INDIANA

CITY           SKY/WX    TMP DP  RH WIND       PRES   REMARKS
BLOOMINGTON    PTCLDY    44  36  73 S6        30.15S
6HR MIN TEMP:  43; 6HR MAX TEMP:  49;

SEYMOUR +      CLEAR     37  32  81 S3        30.17

$$



USA.gov is the U.S. government's official web portal to all federal, state and local government web resources and services.